Location: *
(50.8512°N, 5.6907°E)
Time: 08:38:16
(UTC+00:00)

Cosmos 2173 Rocket - Pass Details

Date: 09 April 2020
Orbit: 946 x 1000 km, 83.0° (Epoch: 06 June)

Event Time Altitude Azimuth Distance (km) Brightness Sun altitude
Rises 22:17:44 0° 352° (N) 3,629 8.1 -28.6°
Reaches altitude 10° 22:20:19 10° 358° (N) 2,682 7.1 -28.7°
Enters shadow 22:26:15 52° 73° (ENE) 1,177 4.3 -29.1°
